Date String (YYYY-MM-DD hh:mm:ss) UTC,Instrument flags,absolute air pressure of the measurement (hPa),sample flow rate (lpm),inlet stack bypass flow (lpm),air temperature of the measurement (°C),ambient temperature measured by the external sensor (°C),aerosol sample conditioner tube jacket temperature (°C),OPC LED temperature (°C),internal box temperature (°C),relative humidity of the measurement (%),span deviation,mass concentration of particles derived from Lorenz-Mie calculation of OPC scattering (μg/m³),mass concentration of particles derived from Lorenz-Mie calculation of OPC scattering (μg/m³),mass concentration of particles derived from Lorenz-Mie calculation of OPC scattering (μg/m³)
DateTimeUTC,F1_M11,P_M11,Q1_M11,Q2_M11,T1_M11,T2_M11,T3_M11,T4_M11,T5_M11,U1_M11,ZSPAN_M11,X0_M11,X2_M11,X1_M11
2024-03-04 06:00:00,SystemResetWarning,0821.0,5.01,000.00,018.4,017.5,000.0,027.2,020.1,15.4,0000.0,0009.20,0001.39,0000.56
2024-03-04 06:01:00,SystemResetWarning,0820.8,4.99,000.00,018.5,018.4,000.0,027.2,020.6,15.2,0000.0,0008.91,0001.37,0000.55
2024-03-04 06:02:00,SystemResetWarning,0820.9,4.99,000.00,018.8,019.2,000.0,027.3,021.1,14.9,0000.0,0008.86,0001.40,0000.55
2024-03-04 06:03:00,SystemResetWarning,0820.7,5.00,000.00,018.9,019.2,000.0,027.2,021.0,14.7,0000.0,0008.17,0001.42,0000.54
2024-03-04 06:04:00,SystemResetWarning,0820.4,4.99,000.00,018.8,018.8,000.0,027.2,020.6,14.8,0000.0,0007.89,0001.42,0000.54
2024-03-04 06:05:00,SystemResetWarning,0820.4,4.99,000.00,018.7,018.4,000.0,027.1,020.3,14.9,0000.0,0008.49,0001.36,0000.53
2024-03-04 06:06:00,SystemResetWarning,0820.6,5.00,000.00,018.6,018.1,000.0,027.1,020.1,15.0,0000.0,0009.05,0001.38,0000.53
2024-03-04 06:07:00,SystemResetWarning,0820.8,5.00,000.00,018.6,017.8,000.0,027.1,020.0,15.1,0000.0,0009.64,0001.42,0000.53
2024-03-04 06:08:00,SystemResetWarning,0820.5,5.00,000.00,018.5,017.7,000.0,027.1,020.0,15.1,0000.0,0009.51,0001.40,0000.53
2024-03-04 06:09:00,SystemResetWarning,0820.7,4.99,000.00,018.4,017.5,000.0,027.2,020.0,15.1,0000.0,0009.46,0001.36,0000.52
2024-03-04 06:10:00,SystemResetWarning,0820.9,5.00,000.00,018.4,017.4,000.0,027.2,020.0,15.2,0000.0,0008.83,0001.33,0000.52
2024-03-04 06:11:00,SystemResetWarning,0820.9,5.00,000.00,018.4,017.3,000.0,027.2,020.0,15.2,0000.0,0008.85,0001.28,0000.50
2024-03-04 06:12:00,SystemResetWarning,0821.0,5.00,000.00,018.4,017.4,000.0,027.2,020.1,15.1,0000.0,0008.61,0001.23,0000.50
2024-03-04 06:13:00,SystemResetWarning,0820.8,5.01,000.00,018.5,018.2,000.0,027.2,020.5,15.0,0000.0,0008.49,0001.23,0000.50
2024-03-04 06:14:00,SystemResetWarning,0820.7,5.00,000.00,018.8,019.0,000.0,027.3,021.1,14.8,0000.0,0008.44,0001.21,0000.50
2024-03-04 06:15:00,SystemResetWarning,0820.7,4.99,000.00,019.0,019.3,000.0,027.3,021.1,14.7,0000.0,0008.22,0001.21,0000.52
2024-03-04 06:16:00,SystemResetWarning,0820.7,4.99,000.00,018.9,019.0,000.0,027.2,020.8,14.6,0000.0,0007.08,0001.21,0000.52
2024-03-04 06:17:00,SystemResetWarning,0820.5,5.01,000.00,018.8,018.6,000.0,027.2,020.4,14.7,0000.0,0006.03,0001.14,0000.53
2024-03-04 06:18:00,SystemResetWarning,0820.6,5.00,000.00,018.7,018.1,000.0,027.1,020.2,14.8,0000.0,0004.85,0001.11,0000.53
2024-03-04 06:19:00,SystemResetWarning,0820.6,5.00,000.00,018.6,017.8,000.0,027.1,020.0,14.8,0000.0,0004.34,0001.14,0000.54
2024-03-04 06:20:00,SystemResetWarning,0820.8,5.00,000.00,018.5,017.6,000.0,027.2,020.0,14.9,0000.0,0005.33,0001.20,0000.56
2024-03-04 06:21:00,SystemResetWarning,0820.9,5.00,000.00,018.5,017.5,000.0,027.2,020.0,14.9,0000.0,0005.66,0001.25,0000.57
2024-03-04 06:22:00,SystemResetWarning,0820.8,5.00,000.00,018.4,017.4,000.0,027.2,020.0,14.8,0000.0,0007.52,0001.27,0000.57
2024-03-04 06:23:00,SystemResetWarning,0821.0,4.99,000.00,018.4,017.3,000.0,027.2,020.0,14.9,0000.0,0007.61,0001.28,0000.59
2024-03-04 06:24:00,SystemResetWarning,0820.9,5.00,000.00,018.4,017.3,000.0,027.2,020.0,15.0,0000.0,0007.58,0001.26,0000.60
2024-03-04 06:25:00,SystemResetWarning,0820.7,5.01,000.00,018.5,017.9,000.0,027.3,020.4,14.9,0000.0,0007.68,0001.31,0000.60
2024-03-04 06:26:00,SystemResetWarning,0821.0,5.00,000.00,018.7,018.8,000.0,027.3,020.9,14.7,0000.0,0007.63,0001.29,0000.61
2024-03-04 06:27:00,SystemResetWarning,0820.9,4.98,000.00,018.8,018.8,000.0,027.2,020.8,14.5,0000.0,0007.75,0001.29,0000.59
2024-03-04 06:28:00,SystemResetWarning,0820.5,5.01,000.00,018.7,018.4,000.0,027.2,020.4,14.5,0000.0,0007.84,0001.33,0000.59
2024-03-04 06:29:00,SystemResetWarning,0820.6,5.00,000.00,018.6,018.1,000.0,027.1,020.1,14.6,0000.0,0008.07,0001.36,0000.60
2024-03-04 06:30:00,SystemResetWarning,0820.8,5.00,000.00,018.5,017.8,000.0,027.1,020.0,14.6,0000.0,0008.26,0001.37,0000.61
2024-03-04 06:31:00,SystemResetWarning,0821.0,5.00,000.00,018.5,017.7,000.0,027.2,020.0,14.7,0000.0,0008.04,0001.37,0000.60
2024-03-04 06:32:00,SystemResetWarning,0820.7,4.99,000.00,018.4,017.5,000.0,027.2,020.0,14.8,0000.0,0008.36,0001.42,0000.60
2024-03-04 06:33:00,SystemResetWarning,0820.5,4.99,000.00,018.4,017.4,000.0,027.2,020.0,14.8,0000.0,0007.62,0001.39,0000.61
2024-03-04 06:34:00,SystemResetWarning,0820.6,5.00,000.00,018.5,017.9,000.0,027.2,020.3,14.7,0000.0,0006.94,0001.39,0000.61
2024-03-04 06:35:00,SystemResetWarning,0820.7,5.01,000.00,018.7,018.8,000.0,027.3,020.9,14.5,0000.0,0008.30,0001.41,0000.60
2024-03-04 06:36:00,SystemResetWarning,0820.7,4.99,000.00,018.8,018.8,000.0,027.2,020.8,14.3,0000.0,0008.39,0001.38,0000.61
2024-03-04 06:37:00,SystemResetWarning,0820.6,5.00,000.00,018.8,018.5,000.0,027.2,020.5,14.4,0000.0,0008.36,0001.38,0000.61
2024-03-04 06:38:00,SystemResetWarning,0820.6,4.98,000.00,018.7,018.2,000.0,027.1,020.1,14.5,0000.0,0008.22,0001.34,0000.61
2024-03-04 06:39:00,SystemResetWarning,0820.7,5.02,000.00,018.6,017.9,000.0,027.1,020.0,14.5,0000.0,0008.44,0001.38,0000.62
2024-03-04 06:40:00,SystemResetWarning,0820.6,5.01,000.00,018.5,017.7,000.0,027.1,020.0,14.5,0000.0,0008.79,0001.36,0000.62
2024-03-04 06:41:00,SystemResetWarning,0820.7,5.00,000.00,018.4,017.5,000.0,027.2,020.0,14.5,0000.0,0008.60,0001.34,0000.61
2024-03-04 06:42:00,SystemResetWarning,0820.7,5.00,000.00,018.4,017.4,000.0,027.2,020.0,14.5,0000.0,0008.23,0001.31,0000.61
2024-03-04 06:43:00,SystemResetWarning,0820.7,4.99,000.00,018.4,017.3,000.0,027.2,020.0,14.5,0000.0,0008.14,0001.24,0000.61
2024-03-04 06:44:00,SystemResetWarning,0820.8,5.00,000.00,018.4,017.4,000.0,027.2,020.1,14.4,0000.0,0008.20,0001.23,0000.61
2024-03-04 06:45:00,SystemResetWarning,0820.8,5.02,000.00,018.5,018.2,000.0,027.3,020.5,14.3,0000.0,0008.21,0001.28,0000.61
2024-03-04 06:46:00,SystemResetWarning,0820.9,4.99,000.00,018.8,019.0,000.0,027.3,020.9,14.2,0000.0,0006.91,0001.25,0000.60
2024-03-04 06:47:00,SystemResetWarning,0820.8,4.98,000.00,018.8,018.8,000.0,027.2,020.7,14.1,0000.0,0006.74,0001.26,0000.60
2024-03-04 06:48:00,SystemResetWarning,0820.8,5.01,000.00,018.7,018.5,000.0,027.1,020.4,14.1,0000.0,0006.86,0001.24,0000.59
2024-03-04 06:49:00,SystemResetWarning,0820.8,5.01,000.00,018.6,018.2,000.0,027.1,020.1,14.2,0000.0,0007.76,0001.30,0000.60
2024-03-04 06:50:00,SystemResetWarning,0820.9,4.99,000.00,018.5,018.0,000.0,027.1,020.0,14.2,0000.0,0007.69,0001.31,0000.60
2024-03-04 06:51:00,SystemResetWarning,0820.8,4.99,000.00,018.5,017.8,000.0,027.1,020.0,14.3,0000.0,0006.88,0001.34,0000.60
2024-03-04 06:52:00,SystemResetWarning,0820.8,5.01,000.00,018.4,017.6,000.0,027.2,020.0,14.3,0000.0,0006.98,0001.35,0000.61
2024-03-04 06:53:00,SystemResetWarning,0820.8,5.01,000.00,018.4,017.5,000.0,027.2,020.0,14.4,0000.0,0008.00,0001.38,0000.62
2024-03-04 06:54:00,SystemResetWarning,0820.8,5.00,000.00,018.4,017.4,000.0,027.2,020.0,14.4,0000.0,0007.88,0001.38,0000.61
2024-03-04 06:55:00,SystemResetWarning,0820.9,5.00,000.00,018.4,017.3,000.0,027.2,020.0,14.4,0000.0,0007.34,0001.37,0000.60
2024-03-04 06:56:00,SystemResetWarning,0820.8,5.01,000.00,018.4,017.5,000.0,027.2,020.1,14.4,0000.0,0006.74,0001.32,0000.59
2024-03-04 06:57:00,SystemResetWarning,0820.8,5.00,000.00,018.5,018.4,000.0,027.3,020.6,14.3,0000.0,0006.81,0001.32,0000.59
2024-03-04 06:58:00,SystemResetWarning,0820.8,5.00,000.00,018.8,019.2,000.0,027.3,021.1,14.2,0000.0,0006.83,0001.30,0000.59
2024-03-04 06:59:00,SystemResetWarning,0820.8,5.00,000.00,018.9,019.2,000.0,027.2,021.0,14.0,0000.0,0006.99,0001.31,0000.58
